Hill AFB, UT

3:01 PM MST on February 24, 2017 (GMT -0700)
Hill Air Force Base

Weather History for KHIF - November, 2012

Change the Weather History Date:

Tuesday, November 27, 2012

  Actual Average Record
Temperature  
Mean Temperature 40 °F -  
Max Temperature 51 °F 40 °F 59 °F (1998)
Min Temperature 30 °F 26 °F 14 °F (2010)
Degree Days  
Heating Degree Days 24    
Moisture  
Dew Point 24 °F    
Average Humidity 57    
Maximum Humidity 68    
Minimum Humidity 37    
Precipitation  
Precipitation 0.00 in - - ()
Sea Level Pressure  
Sea Level Pressure 30.25 in    
Wind  
Wind Speed 9 mph (ESE)    
Max Wind Speed 15 mph    
Max Gust Speed -    
Visibility 10 miles    
Events      
Averages and records for this station are not official NWS values.
T = Trace of Precipitation, MM = Missing Value Source: NWS Daily Summary

Daily Weather History Graph

Daily Weather History Graph

Search for Another Location

Airport or City:

Trip Planner

Search our weather history database for the weather conditions in past years. The results will help you decide how hot, cold, wet, or windy it might be!

Date:

Astronomy

Nov. 27, 2012 Rise Set
Actual Time 7:30 AM MST 5:01 PM MST
Civil Twilight 6:59 AM MST 5:31 PM MST
Nautical Twilight 6:25 AM MST 6:05 PM MST
Astronomical Twilight 5:52 AM MST 6:38 PM MST
Moon 4:35 PM MST (11/27) 6:38 AM MST (11/27)
Length of Visible Light 10h 31m
Length of Day
9h 31m
Waxing Gibbous, 99% of the Moon is Illuminated
Nov 27
Waxing Gibbous
Nov 28
Full
Dec 6
Last Quarter
Dec 13
New
Dec 19
First Quarter

Hourly Weather History & Observations

Time (MST) Temp. Windchill Dew Point Humidity Pressure Visibility Wind Dir Wind Speed Gust Speed Precip Events Conditions
12:58 AM 32.5 °F 26.2 °F 23.2 °F 68% 30.27 in 10.0 mi ESE 6.9 mph - N/A   Clear
1:58 AM 32.4 °F 22.5 °F 22.6 °F 67% 30.26 in 10.0 mi ESE 13.8 mph - N/A   Clear
2:58 AM 32.5 °F 22.3 °F 21.7 °F 64% 30.26 in 10.0 mi ESE 15.0 mph - N/A   Clear
3:58 AM 32.4 °F 22.1 °F 21.2 °F 63% 30.25 in 10.0 mi ESE 15.0 mph - N/A   Clear
4:58 AM 31.3 °F 20.7 °F 20.8 °F 65% 30.27 in 10.0 mi ESE 15.0 mph - N/A   Clear
5:58 AM 31.3 °F 21.1 °F 20.8 °F 65% 30.28 in 10.0 mi ESE 13.8 mph - N/A   Clear
6:58 AM 32.4 °F 22.5 °F 20.8 °F 63% 30.29 in 10.0 mi ESE 13.8 mph - N/A   Clear
7:58 AM 30.2 °F 19.8 °F 20.3 °F 67% 30.32 in 10.0 mi ESE 13.8 mph - N/A   Clear
8:58 AM 32.7 °F 22.5 °F 20.8 °F 62% 30.34 in 10.0 mi ESE 15.0 mph - N/A   Clear
9:58 AM 37.9 °F 30.9 °F 22.5 °F 54% 30.32 in 10.0 mi East 10.4 mph - N/A   Clear
10:58 AM 41.0 °F 36.4 °F 24.1 °F 51% 30.32 in 10.0 mi East 6.9 mph - N/A   Clear
11:58 AM 45.7 °F - 26.2 °F 47% 30.29 in 10.0 mi NNE 1.2 mph - N/A   Clear
12:58 PM 47.7 °F - 27.5 °F 46% 30.25 in 10.0 mi Calm Calm - N/A   Clear
1:58 PM 49.8 °F - 26.4 °F 40% 30.22 in 10.0 mi WNW 2.3 mph - N/A   Clear
2:58 PM 51.4 °F - 25.5 °F 37% 30.21 in 10.0 mi NNW 4.6 mph - N/A   Clear
3:58 PM 50.4 °F - 27.1 °F 41% 30.21 in 10.0 mi NW 2.3 mph - N/A   Clear
4:58 PM 45.1 °F 41.4 °F 31.8 °F 60% 30.22 in 10.0 mi NNW 6.9 mph - N/A   Clear
5:58 PM 43.0 °F - 31.3 °F 63% 30.22 in 10.0 mi ENE 2.3 mph - N/A   Clear
6:58 PM 40.1 °F 36.9 °F 29.7 °F 66% 30.22 in 10.0 mi SSE 4.6 mph - N/A   Clear
7:58 PM 40.8 °F 36.9 °F 26.1 °F 56% 30.22 in 10.0 mi SE 5.8 mph - N/A   Clear
8:58 PM 38.7 °F 33.6 °F 25.5 °F 59% 30.23 in 10.0 mi SE 6.9 mph - N/A   Clear
9:58 PM 37.0 °F 34.5 °F 27.5 °F 68% 30.23 in 10.0 mi SE 3.5 mph - N/A   Clear
10:58 PM 39.2 °F 31.2 °F 21.7 °F 50% 30.20 in 10.0 mi ESE 13.8 mph - N/A   Clear
11:58 PM 37.9 °F 30.9 °F 21.7 °F 52% 30.20 in 10.0 mi East 10.4 mph - N/A   Clear